Location: Unspecified
(25.4115°N, 0.0000°E)
Time: 02:25:33
(UTC+00:00)

NOAA 17 DEB - Visible Passes

Search period start: 04 April 2026 00:00
Search period end: 14 April 2026 00:00
Orbit: 693 x 732 km, 98.8° (Epoch: 27 March)

Date Brightness Start Highest point End Pass type
(mag) Time Alt. Az. Time Alt. Az. Time Alt. Az.
4 Apr ? 04:51:28 10° ENE 04:53:43 13° E 04:55:58 10° SE visible
6 Apr ? 04:46:04 10° E 04:47:04 11° E 04:48:03 10° ESE visible
9 Apr ? 05:21:57 10° NE 05:26:07 31° E 05:30:15 10° SSE visible
10 Apr ? 18:47:02 10° WSW 18:48:11 11° W 18:49:20 10° W visible
11 Apr ? 05:15:26 10° NE 05:19:20 25° E 05:23:11 10° SSE visible
12 Apr ? 18:38:59 10° SW 18:41:20 13° W 18:43:42 10° WNW visible
13 Apr ? 05:08:57 10° NE 05:12:29 21° E 05:15:58 10° SSE visible
